カタログに戻る

THORAD AGENA D DEB

運用中PO
NORAD 5060·DEBRIS·🇺🇸 United States

打ち上げ Apr 8, 1970 から Vandenberg Space Force Base

Loading…

次のパス

TLE

Source: Space-Track
1 05060U 70025JE  26218.87622497  .00000279  00000-0  14720-3 0  9994
2 05060  99.9845 316.1253 0143388   8.5175 351.8381 14.17986825884742

AllMySatでTHORAD AGENA D DEBをリアルタイム追跡

Download on the App Store